[[{"header":{"parameterUnit":"m.s-1","parameterCategory":1,"la1":30.2991,"la2":30.254,"lo1":-89.0895,"lo2":-89.0444,"dy":0.0017,"dx":0.0017,"nx":28,"ny":28,"refTime":"2025-11-05T03:00:00:Z","depth":0,"parameterNumber":2,"parameterNumberName":"U-component_of_WINDS"},"data":[0,0,0,0,0,0,0,0,0,0,0,0,0,0,0,0,0,0,0,0,0,0,0,0,0,0,0,0,0,0,0,0,0,0,0,0,0,0,0,0,0,0,0,0,0,0,0,0,0,0,0,0,0,0,0,0,0,0,-2.1322,-2.1323,0,-2.1353,-2.1353,-2.1354,-2.1273,-2.1271,-2.1268,-2.1266,-2.13,-2.1303,-2.1306,0,0,0,0,0,0,0,0,0,0,0,0,0,-2.1197,-2.12,-2.1322,-2.1323,-2.1323,-2.1353,-2.1353,-2.1354,-2.1274,-2.1271,-2.1268,-2.1265,-2.1299,-2.1303,-2.1307,0,0,0,0,0,0,0,0,0,0,0,0,0,-2.1242,-2.1201,-2.1322,-2.1287,-2.1284,-2.1353,-2.1353,-2.1354,-2.1274,-2.1271,-2.1267,-2.1263,-2.1298,-2.1302,-2.1307,-2.1413,0,0,-2.1322,-2.1324,0,0,0,0,0,0,0,0,-2.124,-2.1247,-2.1292,-2.1289,-2.1286,-2.1305,-2.1322,-2.1374,-2.1275,-2.1278,-2.1266,-2.1262,-2.1305,-2.1309,-2.1323,-2.1414,-2.1416,-2.1323,-2.1325,-2.1328,-2.1329,0,0,0,0,0,0,0,-2.1237,-2.1245,-2.1334,-2.1292,-2.1289,-2.127,-2.1272,-2.1331,-2.1312,-2.1278,-2.1272,-2.1276,-2.1303,-2.1319,-2.1323,-2.1416,-2.1322,-2.1327,-2.133,-2.1332,-2.1597,-2.1601,0,0,0,0,0,0,-2.1238,-2.1243,-2.1333,-2.1335,-2.1253,-2.1275,-2.1278,-2.1303,-2.1312,-2.1309,-2.128,-2.1273,-2.1312,-2.1318,-2.1324,-2.145,-2.1328,-2.1332,-2.1335,-2.1593,-2.1598,-2.1602,0,0,0,0,0,0,-2.1236,-2.1247,-2.1332,-2.1288,-2.1297,-2.1282,-2.1311,-2.1306,-2.1321,-2.1313,-2.131,-2.1299,-2.1309,-2.1317,-2.1391,-2.145,-2.1334,-2.1339,-2.1588,-2.1595,-2.16,-2.1702,0,0,0,0,0,0,-2.1232,-2.1246,-2.1286,-2.1289,-2.13,-2.1399,-2.1314,-2.1309,-2.133,-2.1321,-2.133,-2.1328,-2.1307,-2.1385,-2.1396,-2.1455,-2.1343,-2.1583,-2.1591,-2.1598,-2.1693,-2.171,-2.1725,0,0,0,0,0,-2.1228,-2.1313,-2.1288,-2.13,-2.1348,-2.1402,-2.1408,-2.1381,-2.1335,-2.1375,-2.1369,-2.1328,-2.1441,-2.1393,-2.1405,-2.1466,-2.1579,-2.1589,-2.1598,-2.1686,-2.1707,-2.1725,0,0,0,0,0,0,-2.1318,-2.1313,-2.1285,-2.1374,-2.1389,-2.1388,-2.1438,-2.1404,-2.1434,-2.1424,-2.139,-2.1393,-2.1474,-2.1477,-2.1423,-2.1569,-2.1502,-2.1515,-2.1565,-2.1585,-2.1601,-2.16,-2.1347,0,0,0,0,0,-2.1348,-2.1391,-2.1384,-2.1463,-2.1472,-2.1454,-2.1476,-2.1454,-2.1469,-2.1475,-2.1475,-2.1492,-2.1531,-2.1558,-2.1593,-2.1692,-2.1694,-2.174,-2.1756,-2.1769,-2.1781,-2.1836,-2.1857,-2.1633,-2.1633,-2.1633,0,0,-2.1411,-2.1413,-2.1443,-2.1481,-2.149,-2.1537,-2.146,-2.1512,-2.1547,-2.1483,-2.1554,-2.1554,-2.157,-2.1658,-2.1696,-2.1663,-2.1843,-2.1781,-2.1792,-2.1797,-2.1848,-2.1869,-2.1888,-2.1639,-2.1638,-2.1637,0,0,-2.1549,-2.1554,-2.1622,-2.1632,-2.1647,-2.1634,-2.165,-2.1655,-2.1653,-2.1722,-2.1676,-2.1717,-2.1785,-2.1799,-2.1815,-2.1959,-2.1923,-2.1972,-2.2058,-2.2111,-2.2129,-2.2144,-2.2198,-2.2218,-2.1983,-2.1983,-2.1983,0,-2.1626,-2.1693,-2.166,-2.1716,-2.1736,-2.1679,-2.1748,-2.1759,-2.1785,-2.1801,-2.1762,-2.1847,-2.1854,-2.1945,-2.198,-2.1994,-2.2013,-2.1972,-2.2129,-2.2144,-2.2158,-2.2209,-2.2229,-2.1989,-2.1988,-2.1988,-2.1987,0,-2.1788,-2.1835,-2.1888,-2.1914,-2.1939,-2.2001,-2.1979,-2.2008,-2.1983,-2.1975,-2.2048,-2.2054,-2.209,-2.2109,-2.2086,-2.2198,-2.2177,-2.2134,-2.2067,-2.2186,-2.2233,-2.2252,-2.1998,-2.1996,-2.1994,-2.1992,0,0,-2.1986,-2.1992,-2.2013,-2.2024,-2.2036,-2.2073,-2.2132,-2.2167,-2.2194,-2.2214,-2.2265,-2.2323,-2.2284,-2.2302,-2.228,-2.2326,-2.2443,-2.2278,-2.2278,-2.2311,-2.2569,-2.2604,-2.2627,-2.2418,-2.2421,-2.2424,-2.2569,0,-2.2124,-2.2227,-2.2199,-2.2301,-2.2346,-2.2293,-2.2345,-2.2359,-2.2352,-2.239,-2.2383,-2.2426,-2.237,-2.2381,-2.2424,-2.242,-2.2495,-2.2408,-2.2467,-2.247,-2.2468,-2.2651,-2.2688,-2.2824,-2.2587,-2.259,-2.2592,0,-2.23,-2.2327,-2.2434,-2.2439,-2.2457,-2.2504,-2.2535,-2.2571,-2.2585,-2.2578,-2.2598,-2.2567,-2.2627,-2.2557,-2.2641,-2.2583,-2.2605,-2.2606,-2.2611,-2.2618,-2.254,-2.2666,-2.2866,-2.2888,-2.2621,-2.2618,-2.2616,0,-2.2438,-2.2499,-2.2572,-2.2583,-2.259,-2.2625,-2.263,-2.2641,-2.2664,-2.2691,-2.2706,-2.2739,-2.2759,-2.2786,-2.2765,-2.2715,-2.2853,-2.2781,-2.285,-2.2851,-2.2884,-2.2883,-2.3094,-2.2894,-2.2893,-2.2893,-2.2893,0,-2.2597,-2.2666,-2.2634,-2.2679,-2.2754,-2.2721,-2.2797,-2.2796,-2.2806,-2.2851,-2.2805,-2.2849,-2.2816,-2.2857,-2.2841,-2.2914,-2.2922,-2.2919,-2.2915,-2.2925,-2.2926,-2.2941,-2.2933,-2.2898,-2.2897,-2.2896,-2.2895,0,-2.2764,-2.2745,-2.2821,-2.2822,-2.2823,-2.2879,-2.288,-2.2922,-2.2912,-2.297,-2.2981,-2.2966,-2.3012,-2.2992,-2.3041,-2.303,-2.3125,-2.3106,-2.312,-2.3116,-2.3188,-2.3183,-2.3419,-2.345,-2.3227,-2.3229,-2.3231,0,-2.2869,-2.292,-2.2926,-2.2952,-2.296,-2.3003,-2.3027,-2.2996,-2.3023,-2.3044,-2.3084,-2.3126,-2.3158,-2.3233,-2.3228,-2.3265,-2.3248,-2.3328,-2.3254,-2.3263,-2.3253,-2.3252,-2.3258,-2.3345,-2.3347,-2.3349,-2.3351,0,-2.3058,-2.3046,-2.3081,-2.3113,-2.3142,-2.3166,-2.3187,-2.3211,-2.3182,-2.3214,-2.326,-2.3285,-2.3334,-2.3377,-2.3409,-2.3415,-2.338,-2.3374,-2.3393,-2.3406,-2.3413,-2.3413,-2.3164,-2.3369,-2.3368,-2.3366,-2.3365,-2.3365,-2.3199,-2.3242,-2.3254,-2.3295,-2.3307,-2.3327,-2.3367,-2.3362,-2.3399,-2.3437,-2.3416,-2.3471,-2.3485,-2.3525,-2.3536,-2.3579,-2.3547,-2.3574,-2.3581,-2.3589,-2.36,-2.3403,-2.3584,-2.3583,-2.3583,-2.3582,-2.3582,0,-2.3388,-2.3392,-2.343,-2.346,-2.3492,-2.3453,-2.3474,-2.3505,-2.3553,-2.3568,-2.36,-2.3654,-2.3695,-2.3692,-2.3731,-2.3766,-2.375,-2.3777,-2.3776,-2.3778,-2.3624,-2.3605,-2.3789,-2.3789,-2.3789,-2.3789,-2.3789,-2.3789,-2.349,-2.3563,-2.3552,-2.3631,-2.3635,-2.3687,-2.3703,-2.3722,-2.3734,-2.3796,-2.383,-2.3827,-2.3836,-2.3874,-2.3911,-2.3909,-2.3927,-2.396,-2.3953,-2.3809,-2.3789,-2.3769,-2.3752,-2.3963,-2.3964,-2.4104,-2.4105,-2.4106]},{"header":{"parameterUnit":"m.s-1","parameterCategory":1,"la1":30.2991,"la2":30.254,"lo1":-89.0895,"lo2":-89.0444,"dy":0.0017,"dx":0.0017,"nx":28,"ny":28,"refTime":"2025-11-05T03:00:00:Z","depth":0,"parameterNumber":3,"parameterNumberName":"V-component_of_WINDS"},"data":[0,0,0,0,0,0,0,0,0,0,0,0,0,0,0,0,0,0,0,0,0,0,0,0,0,0,0,0,0,0,0,0,0,0,0,0,0,0,0,0,0,0,0,0,0,0,0,0,0,0,0,0,0,0,0,0,0,0,-2.5682,-2.5682,0,-2.5666,-2.5666,-2.5666,-2.5605,-2.5603,-2.5602,-2.5601,-2.5585,-2.5586,-2.5587,0,0,0,0,0,0,0,0,0,0,0,0,0,-2.5662,-2.5663,-2.5682,-2.5682,-2.5682,-2.5666,-2.5666,-2.5665,-2.5605,-2.5603,-2.5602,-2.56,-2.5585,-2.5586,-2.5587,0,0,0,0,0,0,0,0,0,0,0,0,0,-2.5661,-2.5663,-2.5682,-2.565,-2.5647,-2.5666,-2.5666,-2.5665,-2.5605,-2.5603,-2.5601,-2.5599,-2.5584,-2.5586,-2.5587,-2.5637,0,0,-2.5591,-2.5591,0,0,0,0,0,0,0,0,-2.5661,-2.5662,-2.5655,-2.5652,-2.5649,-2.5635,-2.5653,-2.5656,-2.5606,-2.5621,-2.5601,-2.5598,-2.5603,-2.5603,-2.5605,-2.5636,-2.5635,-2.5591,-2.5592,-2.5592,-2.5593,0,0,0,0,0,0,0,-2.5661,-2.5662,-2.5676,-2.5655,-2.5651,-2.5636,-2.5634,-2.5653,-2.5624,-2.562,-2.5615,-2.5614,-2.5601,-2.5603,-2.5604,-2.5635,-2.5591,-2.5592,-2.5593,-2.5593,-2.5706,-2.5709,0,0,0,0,0,0,-2.5666,-2.5663,-2.5676,-2.5675,-2.565,-2.5638,-2.5636,-2.5642,-2.5624,-2.5619,-2.5616,-2.5611,-2.5602,-2.5602,-2.5603,-2.566,-2.5592,-2.5594,-2.5594,-2.5704,-2.5707,-2.5709,0,0,0,0,0,0,-2.5666,-2.5668,-2.5677,-2.5668,-2.5668,-2.5641,-2.5648,-2.5642,-2.5644,-2.5621,-2.5615,-2.5623,-2.5601,-2.5601,-2.5629,-2.5659,-2.5594,-2.5595,-2.5702,-2.5705,-2.5708,-2.5775,0,0,0,0,0,0,-2.5666,-2.5668,-2.5687,-2.5669,-2.5669,-2.5703,-2.565,-2.5644,-2.5647,-2.5641,-2.5626,-2.5622,-2.5599,-2.5627,-2.563,-2.5659,-2.5596,-2.5699,-2.5703,-2.5707,-2.577,-2.578,-2.5789,0,0,0,0,0,-2.5665,-2.5706,-2.5688,-2.569,-2.5691,-2.5705,-2.5705,-2.5677,-2.5649,-2.5668,-2.5653,-2.5622,-2.5655,-2.563,-2.5633,-2.5663,-2.5697,-2.5702,-2.5707,-2.5766,-2.5778,-2.5789,0,0,0,0,0,0,-2.5729,-2.5703,-2.5683,-2.5719,-2.5715,-2.5694,-2.5717,-2.5691,-2.5695,-2.5689,-2.5655,-2.5652,-2.5684,-2.5676,-2.565,-2.5711,-2.5671,-2.5677,-2.5715,-2.5726,-2.5735,-2.5737,-2.5597,0,0,0,0,0,-2.5747,-2.576,-2.5737,-2.5772,-2.577,-2.5744,-2.5749,-2.5728,-2.5722,-2.572,-2.5707,-2.5703,-2.5712,-2.5718,-2.5726,-2.5768,-2.5765,-2.5791,-2.58,-2.5808,-2.5813,-2.5835,-2.5847,-2.5726,-2.5726,-2.5726,0,0,-2.5785,-2.5773,-2.5783,-2.5784,-2.5778,-2.5793,-2.5743,-2.576,-2.5771,-2.5723,-2.5748,-2.5738,-2.5731,-2.5767,-2.5782,-2.5761,-2.5846,-2.5814,-2.5821,-2.5822,-2.5842,-2.5853,-2.5864,-2.5729,-2.5728,-2.5728,0,0,-2.5862,-2.5854,-2.5881,-2.5876,-2.5867,-2.585,-2.5857,-2.584,-2.5832,-2.5857,-2.5821,-2.5833,-2.5849,-2.5846,-2.5846,-2.5921,-2.5894,-2.5925,-2.5974,-2.5996,-2.6006,-2.6014,-2.6041,-2.6051,-2.593,-2.593,-2.5931,0,-2.591,-2.593,-2.5899,-2.5919,-2.592,-2.5877,-2.5905,-2.5902,-2.5896,-2.5899,-2.5875,-2.5895,-2.5887,-2.5921,-2.594,-2.5941,-2.5948,-2.5926,-2.6007,-2.6015,-2.6022,-2.6048,-2.6058,-2.5934,-2.5934,-2.5933,-2.5933,0,-2.599,-2.6004,-2.6028,-2.6023,-2.6027,-2.6051,-2.6024,-2.6033,-2.6011,-2.5996,-2.6022,-2.6011,-2.6015,-2.6022,-2.6001,-2.6053,-2.6041,-2.6013,-2.5972,-2.6038,-2.6061,-2.6071,-2.594,-2.5938,-2.5937,-2.5936,0,0,-2.6106,-2.6084,-2.6093,-2.609,-2.6078,-2.6088,-2.611,-2.6114,-2.6122,-2.6119,-2.6137,-2.6152,-2.6126,-2.6127,-2.6106,-2.6125,-2.6185,-2.6095,-2.6094,-2.6112,-2.6242,-2.6263,-2.6275,-2.6167,-2.6169,-2.617,-2.6243,0,-2.6179,-2.6215,-2.6188,-2.6229,-2.6242,-2.6201,-2.622,-2.6215,-2.6201,-2.6211,-2.6196,-2.6207,-2.6172,-2.6172,-2.6189,-2.6175,-2.6211,-2.6169,-2.6184,-2.6185,-2.6187,-2.6287,-2.6309,-2.6378,-2.6252,-2.6253,-2.6254,0,-2.6269,-2.627,-2.6312,-2.6297,-2.6301,-2.6319,-2.632,-2.6329,-2.6322,-2.6311,-2.6312,-2.6286,-2.6306,-2.6267,-2.6295,-2.6267,-2.6271,-2.6265,-2.6267,-2.6268,-2.6224,-2.629,-2.64,-2.641,-2.6268,-2.6267,-2.6266,0,-2.635,-2.6362,-2.6389,-2.6388,-2.637,-2.6383,-2.6377,-2.6368,-2.6372,-2.6373,-2.6375,-2.6379,-2.6381,-2.6385,-2.6361,-2.6334,-2.6393,-2.635,-2.6384,-2.6385,-2.6399,-2.6398,-2.651,-2.6401,-2.6401,-2.6401,-2.6401,0,-2.6434,-2.6462,-2.6425,-2.6441,-2.6471,-2.6439,-2.647,-2.6459,-2.6451,-2.6465,-2.643,-2.6444,-2.6411,-2.6421,-2.6403,-2.6429,-2.643,-2.6422,-2.6417,-2.6426,-2.6427,-2.6428,-2.6423,-2.6404,-2.6403,-2.6403,-2.6402,0,-2.6529,-2.6506,-2.6532,-2.6513,-2.6509,-2.6532,-2.6516,-2.653,-2.6515,-2.6533,-2.6535,-2.6511,-2.6521,-2.6497,-2.6505,-2.6492,-2.653,-2.6517,-2.6532,-2.6528,-2.6564,-2.6561,-2.6681,-2.6695,-2.6577,-2.6578,-2.6579,0,-2.6585,-2.6605,-2.6588,-2.6595,-2.659,-2.6601,-2.6605,-2.6575,-2.658,-2.6574,-2.6589,-2.6597,-2.6601,-2.6621,-2.6604,-2.6609,-2.6596,-2.6638,-2.6597,-2.6605,-2.6597,-2.6596,-2.6598,-2.6647,-2.6648,-2.6649,-2.665,0,-2.6686,-2.6673,-2.6679,-2.6682,-2.6687,-2.6688,-2.6686,-2.6694,-2.6662,-2.667,-2.668,-2.6684,-2.6691,-2.6699,-2.6701,-2.6694,-2.6668,-2.6663,-2.6671,-2.668,-2.6689,-2.6685,-2.6556,-2.6661,-2.666,-2.6659,-2.6658,-2.6658,-2.6763,-2.6779,-2.6769,-2.6778,-2.6773,-2.6772,-2.6785,-2.6771,-2.6778,-2.6782,-2.6764,-2.6778,-2.6771,-2.677,-2.6767,-2.6778,-2.6759,-2.6771,-2.6774,-2.6777,-2.6783,-2.6687,-2.6778,-2.6778,-2.6777,-2.6777,-2.6777,0,-2.6862,-2.6854,-2.6862,-2.686,-2.6867,-2.684,-2.6837,-2.6844,-2.6857,-2.6852,-2.6858,-2.687,-2.6877,-2.6861,-2.6867,-2.6879,-2.6867,-2.6881,-2.688,-2.6879,-2.6799,-2.6792,-2.6891,-2.6891,-2.6891,-2.6891,-2.6891,-2.6891,-2.6914,-2.694,-2.6926,-2.6949,-2.6941,-2.6954,-2.6955,-2.6954,-2.695,-2.6965,-2.6971,-2.696,-2.695,-2.6955,-2.6961,-2.6956,-2.696,-2.6979,-2.697,-2.6896,-2.6885,-2.6874,-2.6867,-2.698,-2.698,-2.7049,-2.7049,-2.705]}]]